Content
SEND FEEDBACK

Daily
Averages
Monthly
Summary
United States of America

GREENSBURG, INDIANA


Home > North America > United States > Indiana
Elevation: 949 feet     Latitude: 39 20N     Longitude: 085 28W

WEATHER
 
SELECT A DAY
Number of Records: 177,784;   Date Range: 10/15/98 - 12/17/14
 
SHARE

PRINT THIS DATA

[ ← Previous Day ]
WEATHER ALMANAC - AUGUST 18, 2014
[ Next Day → ]
[ °C ]   °F
Weather ElementAverageHighLow
Temperature74.8 °F88 °F (4:53 pm)68 °F (9:01 am)
Dewpoint67.4 °F71.1 °F (12:53 pm)64.9 °F (12:53 am)
Humidity79 %90 % (3:53 am)53 % (6:53 pm)
Barometer29.84 in29.88 in (6:53 pm)29.79 in (7:53 pm)
Wind Speed3.2 mph5.8 mph (12:53 am)
Weather ElementAverage
Visibility6.2 mi
Wind DirectionESE (105 °)

Weather ElementTotal
Precipitation---
Cooling Degree Days13 (Base 65)
Growing Degree Days28 (Base 50)
Averaged from 30 records on August 18, 2014
WEATHER CONDITIONS BREAKOUT
WIND DIRECTION BREAKOUT
WEATHER BY HOUR - AUGUST 18, 2014
[ °C ]   °F
Local TimeTemperatureDewpointHumidityBarometerVisibilityWind DirectionWind SpeedGust SpeedPrecipitationEventsConditions
12:53 AM71.1 °F66.9 °F87 %29.87 in5.0 miENE (60°)5.8 mphOvercast
1:53 AM71.1 °F66.9 °F87 %29.86 in5.0 miNNE (30°)4.6 mphOvercast
2:31 AM71.1 °F66.9 °F87 %29.87 in5.0 miNE (50°)4.6 mphOvercast
3:48 AM71.6 °F66.2 °F83 %29.86 in4.0 miCalm0.00 inOvercast
3:53 AM71.1 °F66.9 °F87 %29.84 in4.0 miCalm0.00 inOvercast
4:53 AM70.0 °F66.0 °F87 %29.83 in4.0 miNE (40°)4.6 mphMostly Cloudy
5:53 AM69.1 °F66.0 °F90 %29.84 in3.0 miCalmOvercast
6:39 AM69.1 °F66.0 °F90 %29.86 in2.5 miNW (320°)3.5 mphOvercast
6:53 AM69.1 °F66.0 °F90 %29.84 in3.0 miCalmOvercast
7:04 AM69.1 °F64.9 °F87 %29.86 in2.0 miNorth (350°)3.5 mphOvercast
7:13 AM68.0 °F64.9 °F90 %29.86 in1.5 miNorth (350°)4.6 mphOvercast
7:40 AM69.1 °F66.0 °F90 %29.86 in2.0 miNorth (10°)4.6 mphOvercast
7:53 AM69.1 °F66.0 °F90 %29.85 in2.0 miNorth (10°)3.5 mphOvercast
8:24 AM70.0 °F66.0 °F87 %29.87 in3.0 miNorth (10°)3.5 mphOvercast
8:44 AM70.0 °F66.0 °F87 %29.88 in4.0 miNNE (30°)5.8 mphOvercast
8:53 AM71.1 °F66.0 °F84 %29.86 in4.0 miNE (40°)5.8 mphHaze
9:53 AM73.9 °F66.9 °F79 %29.86 in6.0 miVariable4.6 mphHaze
10:53 AM75.0 °F68.0 °F79 %29.87 in8.0 miNNE (30°)4.6 mphOvercast
11:53 AM77.0 °F69.1 °F76 %29.88 in8.0 miNorth (350°)4.6 mphOvercast
12:53 PM82.0 °F69.1 °F65 %29.86 in10.0 miENE (60°)4.6 mphScattered Clouds
1:53 PM84.0 °F68.0 °F58 %29.85 in10.0 miCalmPartly Cloudy
2:53 PM84.0 °F69.1 °F61 %29.83 in10.0 miVariable3.5 mphMostly Cloudy
3:53 PM82.0 °F68.0 °F62 %29.81 in10.0 miSW (230°)3.5 mphPartly Cloudy
4:53 PM88.0 °F69.1 °F53 %29.80 in10.0 miNorth (360°)3.5 mphPartly Cloudy
5:53 PM86.0 °F69.1 °F57 %29.80 in10.0 miWest (280°)3.5 mphClear
6:53 PM84.9 °F69.1 °F59 %29.80 in10.0 miNNW (330°)3.5 mphClear
7:53 PM80.1 °F69.1 °F69 %29.79 in10.0 miCalmClear
8:53 PM75.9 °F70.0 °F82 %29.80 in10.0 miCalmMostly Cloudy
9:53 PM75.9 °F70.0 °F82 %29.81 in10.0 miSSW (210°)4.6 mphOvercast
10:53 PM75.9 °F71.1 °F85 %29.81 in9.0 miCalm0.00 inOvercast
Hourly data recorded from KGEZ, located miles away from Greensburg, Indiana







STORIES FROM OUR PARTNERS